Time,TemperatureF,DewpointF,PressureIn,WindDirection,WindDirectionDegrees,WindSpeedMPH,WindSpeedGustMPH,Humidity,HourlyPrecipIn,Conditions,Clouds,dailyrainin,SoftwareType,DateUTC
2013-05-02 00:01:00,70.3,68.8,29.74,NW,315,2.5,2.5,95,0.00,,---,0.00,VWS V14.01,2013-05-02 04:01:00,
2013-05-02 00:06:00,70.3,68.8,29.74,NNW,338,3.4,3.4,95,0.00,,---,0.00,VWS V14.01,2013-05-02 04:06:00,
2013-05-02 00:11:00,70.3,68.8,29.74,NNW,338,2.7,2.9,95,0.00,,---,0.00,VWS V14.01,2013-05-02 04:11:00,
2013-05-02 00:16:00,70.3,68.8,29.74,ENE,68,0.0,0.0,95,0.00,,---,0.00,VWS V14.01,2013-05-02 04:16:00,
2013-05-02 00:21:00,70.3,68.8,29.74,North,0,3.1,3.1,95,0.00,,---,0.00,VWS V14.01,2013-05-02 04:21:00,
2013-05-02 00:26:00,70.3,68.8,29.74,North,0,2.9,5.4,95,0.00,,---,0.00,VWS V14.01,2013-05-02 04:26:00,
2013-05-02 00:32:00,70.3,68.8,29.74,NW,315,0.0,1.3,95,0.00,,---,0.00,VWS V14.01,2013-05-02 04:32:00,
2013-05-02 00:37:00,70.3,68.8,29.74,North,0,1.6,2.0,95,0.00,,---,0.00,VWS V14.01,2013-05-02 04:37:00,
2013-05-02 00:42:00,70.3,68.8,29.74,NNE,22,1.6,1.6,95,0.00,,---,0.00,VWS V14.01,2013-05-02 04:42:00,
2013-05-02 00:47:00,70.3,68.5,29.74,NE,45,0.0,0.0,94,0.00,,---,0.00,VWS V14.01,2013-05-02 04:47:00,
2013-05-02 00:52:00,70.3,68.5,29.74,WNW,292,1.6,3.1,94,0.00,,---,0.00,VWS V14.01,2013-05-02 04:52:00,
2013-05-02 00:57:00,70.3,68.5,29.74,North,0,0.0,1.3,94,0.00,,---,0.00,VWS V14.01,2013-05-02 04:57:00,
2013-05-02 01:02:00,70.3,68.5,29.74,NE,45,1.1,2.2,94,0.00,,---,0.00,VWS V14.01,2013-05-02 05:02:00,
2013-05-02 01:07:00,70.2,68.4,29.74,NNE,22,1.1,3.1,94,0.00,,---,0.00,VWS V14.01,2013-05-02 05:07:00,
2013-05-02 01:12:00,70.2,68.4,29.74,North,0,0.0,1.1,94,0.00,,---,0.00,VWS V14.01,2013-05-02 05:12:00,
2013-05-02 01:17:00,70.2,68.4,29.74,WNW,292,0.0,2.5,94,0.00,,---,0.00,VWS V14.01,2013-05-02 05:17:00,
2013-05-02 01:22:00,70.2,68.4,29.74,NNE,22,2.0,2.7,94,0.00,,---,0.00,VWS V14.01,2013-05-02 05:22:00,
2013-05-02 01:27:00,70.2,68.4,29.74,NNW,338,0.0,0.9,94,0.00,,---,0.00,VWS V14.01,2013-05-02 05:27:00,
2013-05-02 01:32:00,70.2,68.4,29.74,North,0,2.2,2.2,94,0.00,,---,0.00,VWS V14.01,2013-05-02 05:32:00,
2013-05-02 01:37:00,70.2,68.4,29.74,North,0,0.9,0.9,94,0.00,,---,0.00,VWS V14.01,2013-05-02 05:37:00,
2013-05-02 01:42:00,70.2,68.4,29.71,South,180,0.0,0.0,94,0.00,,---,0.00,VWS V14.01,2013-05-02 05:42:00,
2013-05-02 01:47:00,70.2,68.4,29.71,NE,45,0.0,0.0,94,0.00,,---,0.00,VWS V14.01,2013-05-02 05:47:00,
2013-05-02 01:52:00,70.2,68.4,29.71,NE,45,0.0,1.1,94,0.00,,---,0.00,VWS V14.01,2013-05-02 05:52:00,
2013-05-02 01:57:00,70.2,68.4,29.71,North,0,0.9,3.1,94,0.00,,---,0.00,VWS V14.01,2013-05-02 05:57:00,
2013-05-02 02:02:00,70.2,68.4,29.71,North,0,0.0,0.0,94,0.00,,---,0.00,VWS V14.01,2013-05-02 06:02:00,
2013-05-02 02:07:00,70.2,68.4,29.71,North,0,0.0,0.9,94,0.00,,---,0.00,VWS V14.01,2013-05-02 06:07:00,
2013-05-02 02:12:00,70.2,68.4,29.71,North,0,0.0,0.9,94,0.00,,---,0.00,VWS V14.01,2013-05-02 06:12:00,
2013-05-02 02:17:00,70.2,68.4,29.71,North,0,0.0,1.1,94,0.00,,---,0.00,VWS V14.01,2013-05-02 06:17:00,
2013-05-02 02:22:00,70.2,68.4,29.71,NNE,22,0.0,1.1,94,0.00,,---,0.00,VWS V14.01,2013-05-02 06:22:00,
2013-05-02 02:27:00,70.2,68.4,29.71,NNE,22,0.0,0.0,94,0.00,,---,0.00,VWS V14.01,2013-05-02 06:27:00,
2013-05-02 02:32:00,70.2,68.4,29.71,NNE,22,0.0,0.0,94,0.00,,---,0.00,VWS V14.01,2013-05-02 06:32:00,
2013-05-02 02:37:00,70.2,68.4,29.71,NNE,22,1.1,1.1,94,0.00,,---,0.00,VWS V14.01,2013-05-02 06:37:00,
2013-05-02 02:42:00,70.2,68.4,29.71,NNE,22,0.0,1.6,94,0.05,,---,0.05,VWS V14.01,2013-05-02 06:42:00,
2013-05-02 02:47:00,70.2,68.4,29.71,NW,315,0.9,1.1,94,0.09,,---,0.09,VWS V14.01,2013-05-02 06:47:00,
2013-05-02 02:52:00,70.2,68.4,29.71,NW,315,0.0,2.0,94,0.13,,---,0.13,VWS V14.01,2013-05-02 06:52:00,
2013-05-02 02:57:00,70.0,68.5,29.68,WNW,292,3.1,3.1,95,0.13,,---,0.13,VWS V14.01,2013-05-02 06:57:00,
2013-05-02 03:02:00,70.0,68.5,29.68,NW,315,0.0,1.1,95,0.13,,---,0.13,VWS V14.01,2013-05-02 07:02:00,
2013-05-02 03:07:00,70.0,68.5,29.68,NNW,338,0.9,0.9,95,0.13,,---,0.13,VWS V14.01,2013-05-02 07:07:00,
2013-05-02 03:12:00,70.0,68.5,29.68,NNW,338,0.0,0.0,95,0.13,,---,0.13,VWS V14.01,2013-05-02 07:12:00,
2013-05-02 03:17:00,70.0,68.5,29.68,NNW,338,0.0,0.0,95,0.13,,---,0.13,VWS V14.01,2013-05-02 07:17:00,
2013-05-02 03:22:00,70.0,68.5,29.68,NNW,338,0.0,0.0,95,0.21,,---,0.21,VWS V14.01,2013-05-02 07:22:00,
2013-05-02 03:27:00,70.0,68.5,29.71,ESE,112,1.6,1.6,95,0.26,,---,0.26,VWS V14.01,2013-05-02 07:27:00,
2013-05-02 03:32:00,70.0,68.5,29.71,ENE,68,3.4,3.4,95,0.30,,---,0.30,VWS V14.01,2013-05-02 07:32:00,
2013-05-02 03:37:00,69.4,67.9,29.71,North,0,2.0,2.5,95,0.30,,---,0.30,VWS V14.01,2013-05-02 07:37:00,
2013-05-02 03:42:00,69.1,67.6,29.68,NNW,338,0.0,0.0,95,0.30,,---,0.30,VWS V14.01,2013-05-02 07:42:00,
2013-05-02 03:47:00,68.9,67.1,29.68,NE,45,0.0,0.0,94,0.25,,---,0.34,VWS V14.01,2013-05-02 07:47:00,
2013-05-02 03:52:00,68.9,67.1,29.68,NE,45,1.1,1.3,94,0.21,,---,0.34,VWS V14.01,2013-05-02 07:52:00,
2013-05-02 03:57:00,68.9,67.1,29.71,NE,45,2.5,2.5,94,0.21,,---,0.34,VWS V14.01,2013-05-02 07:57:00,
2013-05-02 04:02:00,69.1,67.6,29.71,NE,45,0.0,0.0,95,0.21,,---,0.34,VWS V14.01,2013-05-02 08:02:00,
2013-05-02 04:07:00,69.1,67.6,29.71,NE,45,0.0,0.0,95,0.21,,---,0.34,VWS V14.01,2013-05-02 08:07:00,
2013-05-02 04:12:00,69.1,67.6,29.68,NE,45,0.0,0.0,95,0.21,,---,0.34,VWS V14.01,2013-05-02 08:12:00,
2013-05-02 04:17:00,69.1,67.6,29.68,NE,45,0.0,0.0,95,0.21,,---,0.34,VWS V14.01,2013-05-02 08:17:00,
2013-05-02 04:22:00,69.3,67.8,29.68,NE,45,0.0,0.0,95,0.17,,---,0.34,VWS V14.01,2013-05-02 08:22:00,
2013-05-02 04:27:00,69.3,67.8,29.71,NE,45,0.0,0.0,95,0.08,,---,0.34,VWS V14.01,2013-05-02 08:27:00,
2013-05-02 04:32:00,69.3,67.8,29.71,NE,45,0.0,0.0,95,0.04,,---,0.34,VWS V14.01,2013-05-02 08:32:00,
2013-05-02 04:37:00,69.3,67.8,29.71,NE,45,0.0,0.0,95,0.04,,---,0.34,VWS V14.01,2013-05-02 08:37:00,
2013-05-02 04:42:00,69.3,67.8,29.68,NE,45,0.0,0.0,95,0.08,,---,0.38,VWS V14.01,2013-05-02 08:42:00,
2013-05-02 04:47:00,69.3,67.8,29.68,NW,315,2.0,4.0,95,0.04,,---,0.38,VWS V14.01,2013-05-02 08:47:00,
2013-05-02 04:52:00,69.1,67.6,29.68,ENE,68,1.1,2.0,95,0.04,,---,0.38,VWS V14.01,2013-05-02 08:52:00,
2013-05-02 04:57:00,68.9,67.4,29.68,East,90,0.0,0.0,95,0.08,,---,0.42,VWS V14.01,2013-05-02 08:57:00,
2013-05-02 05:02:00,68.7,67.2,29.68,East,90,2.2,2.2,95,0.08,,---,0.42,VWS V14.01,2013-05-02 09:02:00,
2013-05-02 05:07:00,68.5,67.1,29.68,NNE,22,1.6,3.8,95,0.12,,---,0.46,VWS V14.01,2013-05-02 09:07:00,
2013-05-02 05:12:00,68.2,66.4,29.68,NE,45,2.7,4.5,94,0.12,,---,0.46,VWS V14.01,2013-05-02 09:12:00,
2013-05-02 05:17:00,68.0,66.2,29.68,NW,315,1.3,3.8,94,0.12,,---,0.46,VWS V14.01,2013-05-02 09:17:00,
2013-05-02 05:22:00,67.8,66.0,29.68,NNE,22,0.9,1.6,94,0.12,,---,0.46,VWS V14.01,2013-05-02 09:22:00,
2013-05-02 05:27:00,67.6,65.6,29.68,East,90,0.0,0.0,93,0.16,,---,0.50,VWS V14.01,2013-05-02 09:27:00,
2013-05-02 05:32:00,67.5,65.4,29.68,NE,45,1.1,1.1,93,0.20,,---,0.54,VWS V14.01,2013-05-02 09:32:00,
2013-05-02 05:37:00,67.3,65.5,29.68,ENE,68,1.1,3.6,94,0.25,,---,0.59,VWS V14.01,2013-05-02 09:37:00,
2013-05-02 05:42:00,67.3,65.5,29.71,North,0,3.1,3.1,94,0.25,,---,0.59,VWS V14.01,2013-05-02 09:42:00,
2013-05-02 05:47:00,66.9,65.1,29.71,SE,135,4.9,4.9,94,0.25,,---,0.63,VWS V14.01,2013-05-02 09:47:00,
2013-05-02 05:52:00,66.6,64.5,29.71,NNE,22,0.0,5.4,93,0.29,,---,0.67,VWS V14.01,2013-05-02 09:52:00,
2013-05-02 05:57:00,66.4,64.3,29.71,NNE,22,1.3,1.6,93,0.29,,---,0.71,VWS V14.01,2013-05-02 09:57:00,
2013-05-02 06:02:00,66.4,64.3,29.71,NE,45,0.9,2.5,93,0.29,,---,0.71,VWS V14.01,2013-05-02 10:02:00,
2013-05-02 06:07:00,66.4,64.6,29.71,ESE,112,0.0,1.6,94,0.29,,---,0.75,VWS V14.01,2013-05-02 10:07:00,
2013-05-02 06:12:00,66.2,64.4,29.71,SE,135,0.0,1.3,94,0.29,,---,0.75,VWS V14.01,2013-05-02 10:12:00,
2013-05-02 06:17:00,66.2,64.4,29.71,NE,45,0.9,0.9,94,0.29,,---,0.75,VWS V14.01,2013-05-02 10:17:00,
2013-05-02 06:22:00,66.2,64.4,29.71,NNE,22,0.9,3.4,94,0.29,,---,0.75,VWS V14.01,2013-05-02 10:22:00,
2013-05-02 06:27:00,66.2,64.4,29.71,East,90,0.0,0.0,94,0.25,,---,0.75,VWS V14.01,2013-05-02 10:27:00,
2013-05-02 06:32:00,66.0,64.6,29.71,East,90,0.0,0.0,95,0.26,,---,0.80,VWS V14.01,2013-05-02 10:32:00,
2013-05-02 06:37:00,66.0,64.6,29.71,NE,45,0.0,0.0,95,0.25,,---,0.84,VWS V14.01,2013-05-02 10:37:00,
2013-05-02 06:42:00,65.8,64.4,29.71,NE,45,0.9,1.1,95,0.25,,---,0.84,VWS V14.01,2013-05-02 10:42:00,
2013-05-02 06:47:00,65.8,64.4,29.71,North,0,2.0,2.0,95,0.21,,---,0.84,VWS V14.01,2013-05-02 10:47:00,
2013-05-02 06:53:00,65.8,64.4,29.71,NNW,338,0.0,0.0,95,0.17,,---,0.84,VWS V14.01,2013-05-02 10:53:00,
2013-05-02 06:58:00,65.8,64.4,29.71,North,0,0.0,0.0,95,0.13,,---,0.84,VWS V14.01,2013-05-02 10:58:00,
2013-05-02 07:03:00,65.8,64.4,29.71,North,0,0.9,0.9,95,0.13,,---,0.84,VWS V14.01,2013-05-02 11:03:00,
2013-05-02 07:08:00,65.8,64.4,29.71,North,0,0.0,0.0,95,0.09,,---,0.84,VWS V14.01,2013-05-02 11:08:00,
2013-05-02 07:13:00,66.0,64.8,29.71,North,0,0.0,0.0,96,0.13,,---,0.88,VWS V14.01,2013-05-02 11:13:00,
2013-05-02 07:18:00,66.0,64.8,29.71,North,0,0.0,0.9,96,0.13,,---,0.88,VWS V14.01,2013-05-02 11:18:00,
2013-05-02 07:23:00,66.2,64.7,29.71,North,0,2.5,2.5,95,0.13,,---,0.88,VWS V14.01,2013-05-02 11:23:00,
2013-05-02 07:28:00,66.2,65.0,29.71,North,0,0.0,0.0,96,0.13,,---,0.88,VWS V14.01,2013-05-02 11:28:00,
2013-05-02 07:33:00,66.2,65.0,29.71,NNE,22,0.0,0.0,96,0.08,,---,0.88,VWS V14.01,2013-05-02 11:33:00,
2013-05-02 07:38:00,66.4,65.2,29.71,NW,315,1.3,2.0,96,0.08,,---,0.88,VWS V14.01,2013-05-02 11:38:00,
2013-05-02 07:43:00,66.4,65.2,29.71,NNE,22,0.0,2.0,96,0.04,,---,0.88,VWS V14.01,2013-05-02 11:43:00,
2013-05-02 07:48:00,66.4,65.2,29.71,NE,45,0.0,0.0,96,0.04,,---,0.88,VWS V14.01,2013-05-02 11:48:00,
2013-05-02 07:53:00,66.4,65.2,29.71,NE,45,0.0,2.5,96,0.04,,---,0.88,VWS V14.01,2013-05-02 11:53:00,
2013-05-02 07:58:00,66.6,65.4,29.71,NE,45,0.0,0.0,96,0.04,,---,0.88,VWS V14.01,2013-05-02 11:58:00,
2013-05-02 08:03:00,66.7,65.6,29.71,NE,45,0.9,0.9,96,0.04,,---,0.88,VWS V14.01,2013-05-02 12:03:00,
2013-05-02 08:08:00,67.1,65.9,29.71,NE,45,1.3,1.3,96,0.04,,---,0.88,VWS V14.01,2013-05-02 12:08:00,
2013-05-02 08:13:00,67.3,66.1,29.71,ESE,112,0.9,0.9,96,0.00,,---,0.88,VWS V14.01,2013-05-02 12:13:00,
2013-05-02 08:18:00,67.5,66.3,29.71,SE,135,0.0,0.0,96,0.00,,---,0.88,VWS V14.01,2013-05-02 12:18:00,
2013-05-02 08:23:00,67.5,66.3,29.71,ENE,68,1.6,2.2,96,0.00,,---,0.88,VWS V14.01,2013-05-02 12:23:00,
2013-05-02 08:28:00,67.6,66.5,29.71,ENE,68,0.0,0.0,96,0.00,,---,0.88,VWS V14.01,2013-05-02 12:28:00,
2013-05-02 08:33:00,67.6,66.5,29.71,NE,45,0.0,2.7,96,0.04,,---,0.92,VWS V14.01,2013-05-02 12:33:00,
2013-05-02 08:38:00,67.8,66.6,29.71,North,0,0.0,1.3,96,0.04,,---,0.92,VWS V14.01,2013-05-02 12:38:00,
2013-05-02 08:43:00,67.8,66.6,29.71,ENE,68,0.9,2.5,96,0.04,,---,0.92,VWS V14.01,2013-05-02 12:43:00,
2013-05-02 08:48:00,68.0,66.8,29.71,ENE,68,0.9,2.5,96,0.04,,---,0.92,VWS V14.01,2013-05-02 12:48:00,
2013-05-02 08:53:00,68.2,67.0,29.71,ENE,68,2.0,2.5,96,0.04,,---,0.92,VWS V14.01,2013-05-02 12:53:00,
2013-05-02 08:58:00,68.4,67.2,29.71,East,90,0.0,0.9,96,0.04,,---,0.92,VWS V14.01,2013-05-02 12:58:00,
2013-05-02 09:03:00,68.5,67.4,29.71,ENE,68,1.3,2.5,96,0.04,,---,0.92,VWS V14.01,2013-05-02 13:03:00,
2013-05-02 09:08:00,68.9,67.7,29.71,ENE,68,0.0,0.0,96,0.04,,---,0.92,VWS V14.01,2013-05-02 13:08:00,
2013-05-02 09:13:00,69.1,67.6,29.71,NE,45,2.2,2.2,95,0.04,,---,0.92,VWS V14.01,2013-05-02 13:13:00,
2013-05-02 09:18:00,69.1,67.6,29.71,East,90,1.6,2.9,95,0.04,,---,0.92,VWS V14.01,2013-05-02 13:18:00,
2013-05-02 09:23:00,68.9,67.4,29.71,ESE,112,0.0,1.6,95,0.04,,---,0.92,VWS V14.01,2013-05-02 13:23:00,
2013-05-02 09:28:00,68.9,67.1,29.71,ENE,68,0.0,1.6,94,0.04,,---,0.92,VWS V14.01,2013-05-02 13:28:00,
2013-05-02 09:33:00,68.9,67.1,29.71,East,90,0.0,2.5,94,0.04,,---,0.92,VWS V14.01,2013-05-02 13:33:00,
2013-05-02 09:38:00,69.1,67.3,29.71,NNE,22,0.0,2.7,94,0.00,,---,0.92,VWS V14.01,2013-05-02 13:38:00,
2013-05-02 09:43:00,69.3,67.5,29.74,NNE,22,0.0,2.5,94,0.00,,---,0.92,VWS V14.01,2013-05-02 13:43:00,
2013-05-02 09:48:00,69.8,68.0,29.74,NE,45,0.0,2.0,94,0.00,,---,0.92,VWS V14.01,2013-05-02 13:48:00,
2013-05-02 09:53:00,70.7,68.9,29.74,ENE,68,2.5,3.1,94,0.00,,---,0.92,VWS V14.01,2013-05-02 13:53:00,
2013-05-02 09:58:00,71.1,68.9,29.71,NE,45,2.5,4.9,93,0.00,,---,0.92,VWS V14.01,2013-05-02 13:58:00,
2013-05-02 10:03:00,71.1,68.0,29.71,NE,45,0.0,2.2,90,0.00,,---,0.92,VWS V14.01,2013-05-02 14:03:00,
2013-05-02 10:08:00,72.1,68.7,29.71,NE,45,1.6,5.4,89,0.00,,---,0.92,VWS V14.01,2013-05-02 14:08:00,
2013-05-02 10:13:00,72.9,68.1,29.71,East,90,4.3,4.3,85,0.00,,---,0.92,VWS V14.01,2013-05-02 14:13:00,
2013-05-02 10:18:00,72.7,66.5,29.71,SE,135,3.4,7.4,81,0.00,,---,0.92,VWS V14.01,2013-05-02 14:18:00,
2013-05-02 10:23:00,72.0,65.5,29.71,ENE,68,2.2,3.1,80,0.00,,---,0.92,VWS V14.01,2013-05-02 14:23:00,
2013-05-02 10:28:00,71.8,66.0,29.74,ENE,68,2.7,2.7,82,0.00,,---,0.92,VWS V14.01,2013-05-02 14:28:00,
2013-05-02 10:33:00,71.2,65.1,29.74,East,90,1.6,3.6,81,0.00,,---,0.92,VWS V14.01,2013-05-02 14:33:00,
2013-05-02 10:38:00,70.5,64.1,29.74,ESE,112,3.4,4.0,80,0.00,,---,0.92,VWS V14.01,2013-05-02 14:38:00,
2013-05-02 10:43:00,70.5,64.4,29.71,ENE,68,3.8,4.3,81,0.00,,---,0.92,VWS V14.01,2013-05-02 14:43:00,
2013-05-02 10:48:00,70.5,64.8,29.71,ESE,112,1.3,1.3,82,0.00,,---,0.92,VWS V14.01,2013-05-02 14:48:00,
2013-05-02 10:53:00,70.5,64.4,29.71,East,90,2.9,4.3,81,0.00,,---,0.92,VWS V14.01,2013-05-02 14:53:00,
2013-05-02 10:58:00,71.4,65.6,29.71,NE,45,0.0,2.2,82,0.00,,---,0.92,VWS V14.01,2013-05-02 14:58:00,
2013-05-02 11:03:00,72.3,65.8,29.71,ENE,68,1.3,1.3,80,0.00,,---,0.92,VWS V14.01,2013-05-02 15:03:00,
2013-05-02 11:08:00,72.7,65.8,29.71,NE,45,2.9,2.9,79,0.00,,---,0.92,VWS V14.01,2013-05-02 15:08:00,
2013-05-02 11:13:00,72.9,65.6,29.71,East,90,2.2,4.0,78,0.00,,---,0.92,VWS V14.01,2013-05-02 15:13:00,
2013-05-02 11:18:00,72.5,64.9,29.71,ENE,68,2.7,2.7,77,0.00,,---,0.92,VWS V14.01,2013-05-02 15:18:00,
2013-05-02 11:23:00,71.8,63.8,29.71,ENE,68,4.3,4.3,76,0.00,,---,0.92,VWS V14.01,2013-05-02 15:23:00,
2013-05-02 11:28:00,71.2,63.3,29.71,NNE,22,0.9,1.1,76,0.00,,---,0.92,VWS V14.01,2013-05-02 15:28:00,
2013-05-02 11:34:00,71.4,64.2,29.71,NE,45,2.2,2.2,78,0.00,,---,0.92,VWS V14.01,2013-05-02 15:34:00,
2013-05-02 11:39:00,72.5,65.3,29.71,NE,45,0.0,0.0,78,0.00,,---,0.92,VWS V14.01,2013-05-02 15:39:00,
2013-05-02 11:44:00,73.6,65.9,29.71,East,90,1.6,2.9,77,0.00,,---,0.92,VWS V14.01,2013-05-02 15:44:00,
2013-05-02 11:49:00,74.3,65.5,29.71,ENE,68,1.3,3.4,74,0.00,,---,0.92,VWS V14.01,2013-05-02 15:49:00,
2013-05-02 11:54:00,76.1,67.2,29.71,ENE,68,0.0,2.5,74,0.00,,---,0.92,VWS V14.01,2013-05-02 15:54:00,
2013-05-02 11:59:00,76.3,65.8,29.71,NE,45,5.6,7.4,70,0.00,,---,0.92,VWS V14.01,2013-05-02 15:59:00,
2013-05-02 12:04:00,75.9,66.2,29.71,ESE,112,3.6,3.6,72,0.00,,---,0.92,VWS V14.01,2013-05-02 16:04:00,
2013-05-02 12:09:00,75.2,64.3,29.71,ENE,68,2.7,4.0,69,0.00,,---,0.92,VWS V14.01,2013-05-02 16:09:00,
2013-05-02 12:14:00,74.8,64.4,29.71,NNE,22,0.0,2.0,70,0.00,,---,0.92,VWS V14.01,2013-05-02 16:14:00,
2013-05-02 12:19:00,75.6,65.1,29.71,NNE,22,3.6,4.0,70,0.00,,---,0.92,VWS V14.01,2013-05-02 16:19:00,
2013-05-02 12:24:00,76.1,65.2,29.71,ENE,68,1.6,2.9,69,0.00,,---,0.92,VWS V14.01,2013-05-02 16:24:00,
2013-05-02 12:29:00,77.7,66.8,29.68,ESE,112,0.0,0.9,69,0.00,,---,0.92,VWS V14.01,2013-05-02 16:29:00,
2013-05-02 12:34:00,77.5,66.6,29.68,East,90,0.0,1.6,69,0.00,,---,0.92,VWS V14.01,2013-05-02 16:34:00,
2013-05-02 12:39:00,76.8,65.9,29.68,ENE,68,2.5,2.5,69,0.00,,---,0.92,VWS V14.01,2013-05-02 16:39:00,
2013-05-02 12:44:00,76.8,65.9,29.68,NE,45,3.6,4.7,69,0.00,,---,0.92,VWS V14.01,2013-05-02 16:44:00,
2013-05-02 12:49:00,78.4,67.4,29.68,NNE,22,3.8,3.8,69,0.00,,---,0.92,VWS V14.01,2013-05-02 16:49:00,
2013-05-02 12:54:00,78.1,66.2,29.68,NNW,338,1.3,2.2,67,0.00,,---,0.92,VWS V14.01,2013-05-02 16:54:00,
2013-05-02 12:59:00,78.3,66.4,29.68,NE,45,3.1,3.1,67,0.00,,---,0.92,VWS V14.01,2013-05-02 16:59:00,
2013-05-02 13:04:00,77.7,65.9,29.68,NE,45,3.8,3.8,67,0.00,,---,0.92,VWS V14.01,2013-05-02 17:04:00,
2013-05-02 13:09:00,79.3,67.4,29.68,East,90,0.0,1.1,67,0.00,,---,0.92,VWS V14.01,2013-05-02 17:09:00,
2013-05-02 13:14:00,79.2,66.8,29.68,North,0,4.0,4.0,66,0.00,,---,0.92,VWS V14.01,2013-05-02 17:14:00,
2013-05-02 13:19:00,78.3,66.0,29.68,NNE,22,0.0,0.0,66,0.00,,---,0.92,VWS V14.01,2013-05-02 17:19:00,
2013-05-02 13:24:00,76.8,65.5,29.68,NE,45,1.3,1.3,68,0.00,,---,0.92,VWS V14.01,2013-05-02 17:24:00,
2013-05-02 13:29:00,76.1,65.2,29.68,NE,45,0.0,0.0,69,0.00,,---,0.92,VWS V14.01,2013-05-02 17:29:00,
2013-05-02 13:34:00,75.9,65.4,29.68,ENE,68,0.0,0.0,70,0.00,,---,0.92,VWS V14.01,2013-05-02 17:34:00,
2013-05-02 13:39:00,76.3,66.2,29.68,East,90,2.7,2.7,71,0.04,,---,0.96,VWS V14.01,2013-05-02 17:39:00,
2013-05-02 13:44:00,76.3,66.6,29.65,ESE,112,0.0,0.9,72,0.04,,---,0.96,VWS V14.01,2013-05-02 17:44:00,
2013-05-02 13:49:00,75.9,66.7,29.65,East,90,3.1,3.4,73,0.04,,---,0.96,VWS V14.01,2013-05-02 17:49:00,
2013-05-02 13:54:00,74.5,66.8,29.65,ENE,68,0.9,1.3,77,0.08,,---,1.00,VWS V14.01,2013-05-02 17:54:00,
2013-05-02 13:59:00,74.3,67.0,29.65,NNE,22,0.0,4.0,78,0.08,,---,1.00,VWS V14.01,2013-05-02 17:59:00,
2013-05-02 14:04:00,74.5,67.6,29.65,SSE,158,0.0,0.0,79,0.08,,---,1.00,VWS V14.01,2013-05-02 18:04:00,
2013-05-02 14:09:00,74.1,67.9,29.65,NE,45,2.5,3.6,81,0.08,,---,1.00,VWS V14.01,2013-05-02 18:09:00,
2013-05-02 14:14:00,73.6,67.4,29.68,East,90,3.8,6.0,81,0.12,,---,1.04,VWS V14.01,2013-05-02 18:14:00,
2013-05-02 14:19:00,71.2,65.8,29.68,ENE,68,1.3,1.3,83,0.37,,---,1.29,VWS V14.01,2013-05-02 18:19:00,
2013-05-02 14:24:00,70.2,66.1,29.68,SE,135,0.0,0.9,87,0.37,,---,1.29,VWS V14.01,2013-05-02 18:24:00,
2013-05-02 14:29:00,70.5,67.1,29.65,SE,135,0.0,0.0,89,0.37,,---,1.29,VWS V14.01,2013-05-02 18:29:00,
2013-05-02 14:34:00,71.1,68.0,29.65,SE,135,0.0,0.0,90,0.37,,---,1.29,VWS V14.01,2013-05-02 18:34:00,
2013-05-02 14:39:00,71.2,68.5,29.65,NE,45,0.0,0.0,91,0.33,,---,1.29,VWS V14.01,2013-05-02 18:39:00,
2013-05-02 14:44:00,71.4,68.7,29.65,NE,45,1.1,1.1,91,0.33,,---,1.29,VWS V14.01,2013-05-02 18:44:00,
2013-05-02 14:49:00,71.6,69.2,29.65,NE,45,0.0,0.0,92,0.33,,---,1.29,VWS V14.01,2013-05-02 18:49:00,
2013-05-02 14:54:00,71.8,69.3,29.65,NE,45,0.0,0.0,92,0.29,,---,1.29,VWS V14.01,2013-05-02 18:54:00,
2013-05-02 14:59:00,71.8,69.3,29.65,NE,45,0.0,0.0,92,0.29,,---,1.29,VWS V14.01,2013-05-02 18:59:00,
2013-05-02 15:04:00,72.1,69.7,29.65,NE,45,0.0,0.0,92,0.29,,---,1.29,VWS V14.01,2013-05-02 19:04:00,
2013-05-02 15:09:00,72.3,69.9,29.65,NE,45,0.0,0.0,92,0.29,,---,1.29,VWS V14.01,2013-05-02 19:09:00,
2013-05-02 15:14:00,72.5,70.4,29.62,NE,45,0.0,0.0,93,0.21,,---,1.29,VWS V14.01,2013-05-02 19:14:00,
2013-05-02 15:20:00,72.7,70.5,29.62,NE,45,0.0,0.0,93,0.05,,---,1.34,VWS V14.01,2013-05-02 19:20:00,
2013-05-02 15:25:00,72.5,70.4,29.62,NE,45,0.0,0.0,93,0.05,,---,1.34,VWS V14.01,2013-05-02 19:25:00,
2013-05-02 15:30:00,72.7,70.5,29.65,NE,45,0.0,0.0,93,0.05,,---,1.34,VWS V14.01,2013-05-02 19:30:00,
2013-05-02 15:35:00,72.7,70.5,29.65,NE,45,0.0,0.0,93,0.05,,---,1.34,VWS V14.01,2013-05-02 19:35:00,
2013-05-02 15:40:00,72.7,70.5,29.65,NE,45,0.0,0.0,93,0.05,,---,1.34,VWS V14.01,2013-05-02 19:40:00,
2013-05-02 15:45:00,72.3,70.2,29.65,SW,225,0.9,1.3,93,0.05,,---,1.34,VWS V14.01,2013-05-02 19:45:00,
2013-05-02 15:50:00,72.1,69.7,29.65,West,270,2.0,2.0,92,0.05,,---,1.34,VWS V14.01,2013-05-02 19:50:00,
2013-05-02 15:55:00,72.0,69.5,29.65,West,270,0.0,0.0,92,0.09,,---,1.38,VWS V14.01,2013-05-02 19:55:00,
2013-05-02 16:00:00,71.6,69.2,29.65,SW,225,1.3,2.0,92,0.29,,---,1.58,VWS V14.01,2013-05-02 20:00:00,
2013-05-02 16:05:00,71.4,69.3,29.65,South,180,0.0,0.0,93,0.34,,---,1.63,VWS V14.01,2013-05-02 20:05:00,
2013-05-02 16:10:00,71.6,69.5,29.65,South,180,0.0,0.0,93,0.34,,---,1.63,VWS V14.01,2013-05-02 20:10:00,
2013-05-02 16:15:00,71.8,70.0,29.62,South,180,0.0,0.0,94,0.34,,---,1.63,VWS V14.01,2013-05-02 20:15:00,
2013-05-02 16:20:00,71.6,69.8,29.62,South,180,0.0,0.0,94,0.33,,---,1.67,VWS V14.01,2013-05-02 20:20:00,
2013-05-02 16:25:00,71.4,69.6,29.62,SW,225,2.7,4.0,94,0.33,,---,1.67,VWS V14.01,2013-05-02 20:25:00,
2013-05-02 16:30:00,71.4,69.6,29.62,WSW,248,0.0,0.0,94,0.33,,---,1.67,VWS V14.01,2013-05-02 20:30:00,
2013-05-02 16:35:00,71.6,69.8,29.62,WSW,248,0.0,0.0,94,0.33,,---,1.67,VWS V14.01,2013-05-02 20:35:00,
2013-05-02 16:40:00,71.8,70.0,29.62,SE,135,0.0,0.0,94,0.33,,---,1.67,VWS V14.01,2013-05-02 20:40:00,
2013-05-02 16:45:00,72.0,70.1,29.62,SE,135,0.0,0.0,94,0.33,,---,1.67,VWS V14.01,2013-05-02 20:45:00,
2013-05-02 16:50:00,72.3,70.5,29.62,SE,135,0.0,0.0,94,0.33,,---,1.67,VWS V14.01,2013-05-02 20:50:00,
2013-05-02 16:55:00,72.5,70.7,29.62,SE,135,0.0,0.0,94,0.29,,---,1.67,VWS V14.01,2013-05-02 20:55:00,
2013-05-02 17:00:00,72.3,70.5,29.62,East,90,1.3,1.3,94,0.09,,---,1.67,VWS V14.01,2013-05-02 21:00:00,
2013-05-02 17:05:00,72.1,70.0,29.62,ESE,112,0.0,0.0,93,0.04,,---,1.67,VWS V14.01,2013-05-02 21:05:00,
2013-05-02 17:10:00,72.0,69.8,29.62,ESE,112,0.9,0.9,93,0.04,,---,1.67,VWS V14.01,2013-05-02 21:10:00,
2013-05-02 17:15:00,71.8,69.3,29.62,ESE,112,0.0,0.0,92,0.04,,---,1.67,VWS V14.01,2013-05-02 21:15:00,
2013-05-02 17:20:00,71.6,68.8,29.62,SE,135,0.0,0.0,91,0.00,,---,1.67,VWS V14.01,2013-05-02 21:20:00,
2013-05-02 17:25:00,71.4,69.0,29.62,SE,135,0.0,0.0,92,0.00,,---,1.67,VWS V14.01,2013-05-02 21:25:00,
2013-05-02 17:30:00,71.2,68.5,29.62,SE,135,0.0,0.0,91,0.00,,---,1.67,VWS V14.01,2013-05-02 21:30:00,
2013-05-02 17:35:00,71.2,68.5,29.62,NW,315,0.0,0.9,91,0.00,,---,1.67,VWS V14.01,2013-05-02 21:35:00,
2013-05-02 17:40:00,71.1,68.3,29.62,NW,315,0.0,0.0,91,0.00,,---,1.67,VWS V14.01,2013-05-02 21:40:00,
2013-05-02 17:45:00,71.1,68.3,29.62,NW,315,0.0,0.0,91,0.00,,---,1.67,VWS V14.01,2013-05-02 21:45:00,
2013-05-02 17:50:00,71.1,68.6,29.62,NW,315,0.0,0.0,92,0.00,,---,1.67,VWS V14.01,2013-05-02 21:50:00,
2013-05-02 17:55:00,70.9,68.4,29.62,NW,315,0.0,0.0,92,0.04,,---,1.71,VWS V14.01,2013-05-02 21:55:00,
2013-05-02 18:00:00,70.9,68.4,29.62,NW,315,0.0,0.0,92,0.04,,---,1.71,VWS V14.01,2013-05-02 22:00:00,
2013-05-02 18:05:00,70.9,68.4,29.62,NW,315,0.0,0.0,92,0.04,,---,1.71,VWS V14.01,2013-05-02 22:05:00,
2013-05-02 18:10:00,70.7,68.3,29.62,NW,315,0.0,0.0,92,0.04,,---,1.71,VWS V14.01,2013-05-02 22:10:00,
2013-05-02 18:15:00,70.7,68.3,29.62,WNW,292,0.9,0.9,92,0.08,,---,1.75,VWS V14.01,2013-05-02 22:15:00,
2013-05-02 18:20:00,70.5,68.1,29.62,NW,315,2.0,2.0,92,0.08,,---,1.75,VWS V14.01,2013-05-02 22:20:00,
2013-05-02 18:26:00,70.5,68.4,29.62,NW,315,0.0,0.0,93,0.08,,---,1.75,VWS V14.01,2013-05-02 22:26:00,
2013-05-02 18:30:00,70.5,68.4,29.62,SW,225,2.0,2.0,93,0.21,,---,1.88,VWS V14.01,2013-05-02 22:30:00,
2013-05-02 18:36:00,70.5,68.4,29.62,SW,225,3.1,3.1,93,0.45,,---,2.12,VWS V14.01,2013-05-02 22:36:00,
2013-05-02 18:41:00,70.3,68.5,29.62,WNW,292,1.3,1.3,94,0.79,,---,2.46,VWS V14.01,2013-05-02 22:41:00,
2013-05-02 18:46:00,70.3,68.5,29.62,SW,225,0.0,0.0,94,0.95,,---,2.62,VWS V14.01,2013-05-02 22:46:00,
2013-05-02 18:51:00,70.3,68.5,29.62,ESE,112,3.4,3.4,94,1.08,,---,2.75,VWS V14.01,2013-05-02 22:51:00,
2013-05-02 18:56:00,70.2,68.7,29.62,East,90,2.2,4.3,95,1.20,,---,2.91,VWS V14.01,2013-05-02 22:56:00,
2013-05-02 19:01:00,69.8,68.3,29.62,East,90,0.9,1.6,95,1.37,,---,3.08,VWS V14.01,2013-05-02 23:01:00,
2013-05-02 19:06:00,69.6,68.1,29.62,East,90,0.0,0.0,95,1.50,,---,3.21,VWS V14.01,2013-05-02 23:06:00,
2013-05-02 19:11:00,69.4,67.9,29.62,East,90,0.0,0.0,95,1.54,,---,3.25,VWS V14.01,2013-05-02 23:11:00,
2013-05-02 19:16:00,69.3,67.8,29.62,East,90,0.0,0.0,95,1.54,,---,3.29,VWS V14.01,2013-05-02 23:16:00,
2013-05-02 19:21:00,69.1,67.6,29.62,East,90,0.0,0.9,95,1.62,,---,3.37,VWS V14.01,2013-05-02 23:21:00,
2013-05-02 19:26:00,69.1,67.6,29.62,East,90,0.0,0.0,95,1.70,,---,3.45,VWS V14.01,2013-05-02 23:26:00,
2013-05-02 19:31:00,69.1,67.6,29.62,East,90,0.0,1.3,95,1.62,,---,3.45,VWS V14.01,2013-05-02 23:31:00,
2013-05-02 19:36:00,69.1,67.6,29.62,East,90,0.0,0.0,95,1.45,,---,3.49,VWS V14.01,2013-05-02 23:36:00,
2013-05-02 19:41:00,68.9,67.7,29.59,East,90,0.0,0.0,96,1.08,,---,3.49,VWS V14.01,2013-05-02 23:41:00,
2013-05-02 19:46:00,68.9,67.7,29.59,East,90,0.0,0.0,96,0.96,,---,3.54,VWS V14.01,2013-05-02 23:46:00,
2013-05-02 19:51:00,68.9,67.7,29.59,East,90,0.0,0.0,96,0.79,,---,3.54,VWS V14.01,2013-05-02 23:51:00,
2013-05-02 19:56:00,68.9,67.7,29.62,East,90,0.0,0.0,96,0.71,,---,3.58,VWS V14.01,2013-05-02 23:56:00,
2013-05-02 20:01:00,68.9,67.7,29.62,East,90,0.0,0.0,96,0.50,,---,3.58,VWS V14.01,2013-05-03 00:01:00,
2013-05-02 20:06:00,68.7,67.5,29.62,East,90,0.0,0.0,96,0.46,,---,3.62,VWS V14.01,2013-05-03 00:06:00,
2013-05-02 20:11:00,68.7,67.5,29.59,East,90,0.0,0.0,96,0.37,,---,3.62,VWS V14.01,2013-05-03 00:11:00,
2013-05-02 20:16:00,68.7,67.5,29.59,East,90,0.0,0.0,96,0.33,,---,3.62,VWS V14.01,2013-05-03 00:16:00,
2013-05-02 20:21:00,68.7,67.5,29.59,East,90,0.0,0.0,96,0.29,,---,3.66,VWS V14.01,2013-05-03 00:21:00,
2013-05-02 20:26:00,68.7,67.5,29.59,East,90,0.0,0.0,96,0.25,,---,3.66,VWS V14.01,2013-05-03 00:26:00,
2013-05-02 20:31:00,68.7,67.5,29.59,East,90,0.0,0.0,96,0.21,,---,3.66,VWS V14.01,2013-05-03 00:31:00,
2013-05-02 20:36:00,68.5,67.4,29.59,East,90,0.0,0.0,96,0.17,,---,3.66,VWS V14.01,2013-05-03 00:36:00,
2013-05-02 20:41:00,68.5,67.4,29.59,East,90,0.0,0.0,96,0.17,,---,3.66,VWS V14.01,2013-05-03 00:41:00,
2013-05-02 20:46:00,68.5,67.4,29.59,East,90,0.0,0.0,96,0.12,,---,3.66,VWS V14.01,2013-05-03 00:46:00,
2013-05-02 20:51:00,68.5,67.4,29.59,East,90,0.0,0.0,96,0.12,,---,3.66,VWS V14.01,2013-05-03 00:51:00,
2013-05-02 20:56:00,68.5,67.4,29.59,East,90,0.0,0.0,96,0.12,,---,3.70,VWS V14.01,2013-05-03 00:56:00,
2013-05-02 21:01:00,68.7,67.5,29.62,East,90,0.0,0.0,96,0.12,,---,3.70,VWS V14.01,2013-05-03 01:01:00,
2013-05-02 21:06:00,68.7,67.5,29.62,East,90,0.0,0.0,96,0.12,,---,3.70,VWS V14.01,2013-05-03 01:06:00,
2013-05-02 21:11:00,68.7,67.5,29.62,East,90,0.0,0.0,96,0.08,,---,3.70,VWS V14.01,2013-05-03 01:11:00,
2013-05-02 21:16:00,68.7,67.5,29.62,East,90,0.0,0.0,96,0.08,,---,3.70,VWS V14.01,2013-05-03 01:16:00,
2013-05-02 21:21:00,68.7,67.5,29.62,East,90,0.0,0.0,96,0.04,,---,3.70,VWS V14.01,2013-05-03 01:21:00,
2013-05-02 21:26:00,68.7,67.5,29.62,East,90,0.0,0.0,96,0.04,,---,3.70,VWS V14.01,2013-05-03 01:26:00,
2013-05-02 21:31:00,68.7,67.5,29.62,East,90,0.0,0.0,96,0.04,,---,3.70,VWS V14.01,2013-05-03 01:31:00,
2013-05-02 21:36:00,68.7,67.5,29.62,East,90,0.0,0.0,96,0.04,,---,3.70,VWS V14.01,2013-05-03 01:36:00,
2013-05-02 21:41:00,68.7,67.5,29.62,East,90,0.0,0.0,96,0.04,,---,3.70,VWS V14.01,2013-05-03 01:41:00,
2013-05-02 21:46:00,68.9,68.0,29.62,ESE,112,0.0,1.6,97,0.04,,---,3.70,VWS V14.01,2013-05-03 01:46:00,
2013-05-02 21:51:00,68.9,68.0,29.62,ESE,112,1.1,2.2,97,0.04,,---,3.70,VWS V14.01,2013-05-03 01:51:00,
2013-05-02 21:56:00,68.9,68.0,29.62,ESE,112,0.9,2.0,97,0.00,,---,3.70,VWS V14.01,2013-05-03 01:56:00,
2013-05-02 22:01:00,68.7,67.8,29.62,ESE,112,1.1,1.1,97,0.00,,---,3.70,VWS V14.01,2013-05-03 02:01:00,
2013-05-02 22:06:00,68.7,67.8,29.62,ESE,112,0.0,0.0,97,0.00,,---,3.70,VWS V14.01,2013-05-03 02:06:00,
2013-05-02 22:11:00,68.7,67.8,29.62,ESE,112,0.0,0.0,97,0.00,,---,3.70,VWS V14.01,2013-05-03 02:11:00,
2013-05-02 22:16:00,68.5,67.4,29.62,ESE,112,0.0,0.0,96,0.00,,---,3.70,VWS V14.01,2013-05-03 02:16:00,
2013-05-02 22:21:00,68.5,67.4,29.62,ESE,112,0.0,0.0,96,0.00,,---,3.70,VWS V14.01,2013-05-03 02:21:00,
2013-05-02 22:26:00,68.5,67.4,29.62,ESE,112,0.0,0.0,96,0.00,,---,3.70,VWS V14.01,2013-05-03 02:26:00,
2013-05-02 22:31:00,68.4,67.2,29.62,ESE,112,0.0,0.0,96,0.00,,---,3.70,VWS V14.01,2013-05-03 02:31:00,
2013-05-02 22:36:00,68.4,67.2,29.62,ESE,112,0.0,0.0,96,0.00,,---,3.70,VWS V14.01,2013-05-03 02:36:00,
2013-05-02 22:42:00,68.4,67.2,29.62,ESE,112,0.0,0.0,96,0.00,,---,3.70,VWS V14.01,2013-05-03 02:42:00,
2013-05-02 22:47:00,68.4,67.2,29.62,ESE,112,0.0,0.0,96,0.00,,---,3.70,VWS V14.01,2013-05-03 02:47:00,
2013-05-02 22:52:00,68.4,67.2,29.62,ESE,112,2.5,2.5,96,0.00,,---,3.70,VWS V14.01,2013-05-03 02:52:00,
2013-05-02 22:57:00,68.2,67.0,29.62,East,90,4.3,4.3,96,0.00,,---,3.70,VWS V14.01,2013-05-03 02:57:00,
2013-05-02 23:02:00,68.2,67.0,29.62,East,90,4.0,4.0,96,0.00,,---,3.70,VWS V14.01,2013-05-03 03:02:00,
2013-05-02 23:07:00,68.0,66.8,29.62,ESE,112,0.0,0.0,96,0.00,,---,3.70,VWS V14.01,2013-05-03 03:07:00,
2013-05-02 23:12:00,68.0,66.8,29.62,ESE,112,1.1,1.3,96,0.00,,---,3.70,VWS V14.01,2013-05-03 03:12:00,
2013-05-02 23:17:00,68.0,66.8,29.62,ESE,112,0.9,1.3,96,0.00,,---,3.70,VWS V14.01,2013-05-03 03:17:00,
2013-05-02 23:22:00,68.0,66.8,29.62,ESE,112,0.0,0.0,96,0.00,,---,3.70,VWS V14.01,2013-05-03 03:22:00,
2013-05-02 23:27:00,68.0,66.8,29.62,ESE,112,0.0,0.0,96,0.00,,---,3.70,VWS V14.01,2013-05-03 03:27:00,
2013-05-02 23:32:00,68.0,66.8,29.62,ESE,112,0.9,0.9,96,0.00,,---,3.70,VWS V14.01,2013-05-03 03:32:00,
2013-05-02 23:37:00,68.0,66.8,29.62,ESE,112,0.0,1.1,96,0.00,,---,3.70,VWS V14.01,2013-05-03 03:37:00,
2013-05-02 23:42:00,68.0,66.8,29.62,ESE,112,0.0,0.0,96,0.00,,---,3.70,VWS V14.01,2013-05-03 03:42:00,
2013-05-02 23:47:00,67.8,66.9,29.62,ESE,112,0.0,0.0,97,0.00,,---,3.70,VWS V14.01,2013-05-03 03:47:00,
2013-05-02 23:52:00,68.0,67.1,29.62,ESE,112,0.0,1.3,97,0.00,,---,3.70,VWS V14.01,2013-05-03 03:52:00,
2013-05-02 23:57:00,68.0,67.1,29.62,ESE,112,0.0,0.0,97,0.00,,---,3.70,VWS V14.01,2013-05-03 03:57:00,